Easton, MD

6:31 PM EDT on August 27, 2016 (GMT -0400)
Easton / Newnam

Weather History for KESN - May, 2013

Change the Weather History Date:

Monday, May 13, 2013

  Actual Average Record
Temperature  
Mean Temperature 52 °F -  
Max Temperature 60 °F 75 °F 90 °F (1956)
Min Temperature 43 °F 52 °F 39 °F (1976)
Degree Days  
Heating Degree Days 14    
Growing Degree Days 2 (Base 50)    
Moisture  
Dew Point 34 °F    
Average Humidity 53    
Maximum Humidity 81    
Minimum Humidity 34    
Precipitation  
Precipitation 0.00 in - - ()
Sea Level Pressure  
Sea Level Pressure 30.10 in    
Wind  
Wind Speed 8 mph (NW)    
Max Wind Speed 18 mph    
Max Gust Speed 26 mph    
Visibility 10 miles    
Events      
Averages and records for this station are not official NWS values.
T = Trace of Precipitation, MM = Missing Value Source: NWS Daily Summary

Daily Weather History Graph

Daily Weather History Graph

Search for Another Location

Airport or City:

Trip Planner

Search our weather history database for the weather conditions in past years. The results will help you decide how hot, cold, wet, or windy it might be!

Date:

Astronomy

May. 13, 2013 Rise Set
Actual Time 5:53 AM EDT 8:08 PM EDT
Civil Twilight 5:23 AM EDT 8:38 PM EDT
Nautical Twilight 4:47 AM EDT 9:14 PM EDT
Astronomical Twilight 4:07 AM EDT 9:55 PM EDT
Moon 8:37 AM EDT (5/13) 11:15 PM EDT (5/13)
Length of Visible Light 15h 14m
Length of Day
14h 14m
Waxing Crescent, 12% of the Moon is Illuminated
May 13
Waxing Crescent
May 18
First Quarter
May 25
Full
May 31
Last Quarter
Jun 8
New

Hourly Weather History & Observations

Time (EDT) Temp. Dew Point Humidity Pressure Visibility Wind Dir Wind Speed Gust Speed Precip Events Conditions
12:18 AM 53.6 °F 32.0 °F 44% 30.05 in 10.0 mi North 13.8 mph 23.0 mph N/A   Clear
12:38 AM 52.9 °F 32.0 °F 45% 30.06 in 10.0 mi NNW 12.7 mph - N/A   Clear
12:58 AM 52.5 °F 32.2 °F 46% 30.06 in 10.0 mi NNW 11.5 mph 20.7 mph N/A   Clear
1:18 AM 52.0 °F 32.5 °F 48% 30.07 in 10.0 mi NNW 12.7 mph 18.4 mph N/A   Clear
1:38 AM 51.6 °F 32.4 °F 48% 30.06 in 10.0 mi NNW 11.5 mph - N/A   Clear
1:58 AM 51.1 °F 32.5 °F 49% 30.06 in 10.0 mi NNW 10.4 mph - N/A   Clear
2:18 AM 51.1 °F 32.5 °F 49% 30.06 in 10.0 mi North 9.2 mph - N/A   Clear
2:38 AM 49.6 °F 33.6 °F 54% 30.06 in 10.0 mi NNW 6.9 mph - N/A   Clear
2:58 AM 48.9 °F 33.8 °F 56% 30.06 in 10.0 mi Calm Calm - N/A   Clear
3:18 AM 49.1 °F 33.4 °F 55% 30.07 in 10.0 mi Calm Calm - N/A   Clear
3:38 AM 48.2 °F 34.0 °F 58% 30.06 in 10.0 mi Calm Calm - N/A   Clear
3:58 AM 48.6 °F 34.0 °F 57% 30.07 in 10.0 mi Calm Calm - N/A   Clear
4:18 AM 48.4 °F 34.5 °F 59% 30.07 in 10.0 mi North 4.6 mph - N/A   Clear
4:38 AM 48.2 °F 33.8 °F 58% 30.08 in 10.0 mi Calm Calm - N/A   Clear
4:59 AM 47.1 °F 35.2 °F 63% 30.08 in 10.0 mi Calm Calm - N/A   Clear
5:19 AM 47.3 °F 34.3 °F 61% 30.09 in 10.0 mi Calm Calm - N/A   Clear
5:39 AM 46.2 °F 34.7 °F 64% 30.09 in 10.0 mi Calm Calm - N/A   Clear
5:48 AM 44.6 °F 37.4 °F 76% 30.09 in 10.0 mi Calm Calm - N/A   Clear
5:59 AM 43.0 °F 36.0 °F 76% 30.10 in 10.0 mi Calm Calm - N/A   Clear
6:19 AM 44.1 °F 38.5 °F 81% 30.11 in 10.0 mi Calm Calm - N/A   Clear
6:39 AM 45.9 °F 39.9 °F 80% 30.11 in 10.0 mi Calm Calm - N/A   Clear
6:48 AM 48.2 °F 41.0 °F 76% 30.12 in 10.0 mi Calm Calm - N/A   Clear
6:59 AM 50.0 °F 41.0 °F 71% 30.12 in 10.0 mi Calm Calm - N/A   Clear
7:19 AM 52.7 °F 39.9 °F 62% 30.12 in 10.0 mi Calm Calm - N/A   Clear
7:39 AM 52.9 °F 35.8 °F 52% 30.13 in 10.0 mi NW 10.4 mph - N/A   Clear
7:42 AM 53.2 °F 35.6 °F 51% 30.13 in 10.0 mi WNW 8.1 mph - N/A   Clear
7:55 AM 53.6 °F 35.6 °F 51% 30.13 in 10.0 mi NW 13.8 mph 23.0 mph N/A   Clear
8:47 AM 55.4 °F 30.2 °F 38% 30.14 in 10.0 mi NW 13.8 mph 23.0 mph N/A   Scattered Clouds
9:55 AM 57.2 °F 32.0 °F 38% 30.14 in 10.0 mi WNW 11.5 mph 17.3 mph N/A   Scattered Clouds
10:56 AM 59.0 °F 35.6 °F 42% 30.14 in 10.0 mi West 11.5 mph 16.1 mph N/A   Scattered Clouds
11:50 AM 57.2 °F 33.8 °F 41% 30.14 in 10.0 mi West 5.8 mph 17.3 mph N/A   Scattered Clouds
12:50 PM 57.2 °F 35.6 °F 44% 30.12 in 10.0 mi NW 17.3 mph 21.9 mph N/A   Scattered Clouds
1:50 PM 60.8 °F 32.0 °F 34% 30.11 in 10.0 mi NW 18.4 mph 26.5 mph N/A   Scattered Clouds
2:53 PM 60.8 °F 33.8 °F 36% 30.10 in 10.0 mi WNW 11.5 mph 19.6 mph N/A   Scattered Clouds
4:50 PM 57.2 °F 32.0 °F 38% 30.07 in 10.0 mi NW 16.1 mph - N/A   Scattered Clouds
5:53 PM 57.2 °F 32.0 °F 38% 30.07 in 10.0 mi North 10.4 mph 20.7 mph N/A   Mostly Cloudy
6:50 PM 57.2 °F 30.2 °F 36% 30.07 in 10.0 mi North 9.2 mph 18.4 mph N/A   Scattered Clouds
7:50 PM 55.4 °F 28.4 °F 36% 30.10 in 10.0 mi NNW 11.5 mph - N/A   Partly Cloudy
8:50 PM 51.8 °F 30.2 °F 44% 30.13 in 10.0 mi North 5.8 mph - N/A   Clear
11:01 PM 46.6 °F 33.3 °F 60% 30.17 in 10.0 mi Calm Calm - N/A   Clear
11:21 PM 46.8 °F 33.6 °F 60% 30.18 in 10.0 mi Calm Calm - N/A   Clear
11:41 PM 46.6 °F 33.4 °F 60% 30.18 in 10.0 mi Calm Calm - N/A   Clear